Regional Weather Roundup
Issued by NWS Albany, NY

Home | Current Version | Previous Version | Text Only | Print | Product List | Glossary On
Versions: 1 2 3 4 5 6 7 8 9 10 11 12 13 14 15 16 17 18 19 20 21 22 23 24 25 26 27 28 29 30 31 32 33 34 35 36 37 38 39 40 41 42 43 44 45 46 47 48
000
ASUS41 KALY 271610
RWRALY

NEW YORK STATE HOURLY WEATHER ROUNDUP
NATIONAL WEATHER SERVICE ALBANY NY
1200 PM EDT THU AUG 27 2015

NOTE: "FAIR" INDICATES FEW OR NO CLOUDS BELOW 12,000 FEET WITH NO
SIGNIFICANT WEATHER AND/OR NO OBSTRUCTIONS TO VISIBILITY.

NYZ032-033-038>043-046>054-057>066-NYZ062>081-271700-
EAST


CITY           SKY/WX    TMP DP  RH WIND       PRES   REMARKS
ALBANY         PTSUNNY   70  56  61 W9        30.07S
GLENS FALLS    CLOUDY    71  53  52 VRB3      30.04S
POUGHKEEPSIE   PTSUNNY   75  54  47 W6        30.06F
NEWBURGH       MOSUNNY   72  57  60 W14       30.09S
MONTGOMERY     PTSUNNY   72  56  57 W12       30.08F
WHITE PLAINS   MOSUNNY   75  53  46 W12       30.07S
ISLIP          PTSUNNY   77  55  46 NW6       30.05S
NEW YORK CITY  MOSUNNY   77  52  41 N13       30.06F
CENTRAL PARK   SUNNY     78  51  38 CALM      30.09F
$$

NYZ005>009-017-018-044>046-055-056-271700-
CENTRAL


CITY           SKY/WX    TMP DP  RH WIND       PRES   REMARKS
FULTON         CLOUDY    64  60  87 NW7       30.11S
SYRACUSE       CLOUDY    65  58  78 W13       30.10F
ROME           CLOUDY    61  59  93 W8        30.11S
ELMIRA         CLOUDY    68  52  56 NW8       30.12S
BINGHAMTON     CLOUDY    62  52  69 NW8       30.14S
MONTICELLO     PTSUNNY   64  54  68 W9        30.14S
$$

NYZ026>034-041>043-271700-
NORTH


CITY           SKY/WX    TMP DP  RH WIND       PRES   REMARKS
WATERTOWN      PTSUNNY   67  52  58 VRB5      30.08F
FORT DRUM      NOT AVBL
MASSENA        CLOUDY    65  54  67 W7        30.07S
SARANAC LAKE   CLOUDY    61  50  67 VRB5      30.07S
PLATTSBURGH    CLOUDY    68  53  58 NW5       30.03S
$$

NYZ001>004-010>016-019>021-271700-
WEST


CITY           SKY/WX    TMP DP  RH WIND       PRES   REMARKS
NIAGARA FALLS  PTSUNNY   64  53  67 NW12      30.15R
BUFFALO        PTSUNNY   65  52  62 NW9       30.15R
DUNKIRK        MOSUNNY   66  55  67 NW8       30.17R
JAMESTOWN      CLOUDY    63  54  72 NW8       30.18S
WELLSVILLE     LGT RAIN  60  53  77 N6        30.20R
ROCHESTER      CLOUDY    65  53  65 NW10      30.14S
PENN YAN       CLOUDY    66  53  63 NW8       30.14S
$$

             KEY
       WCI = WIND CHILL INDEX
       VSB = VISIBILITY
       HX  = HEAT INDEX
$$



USA.gov is the U.S. government's official web portal to all federal, state and local government web resources and services.